Vorticity
4 4 7 6 8 6 7 7 9 8 11 12 5 2 7 4 14 20 7 3 3 4 5 2 4 5 4 5 6 4 4 3 5 5 2 4 5 5 6 6 4 4 9 2 1 4 2 2 4 4 4 13 12 12
6 8 7 10 7 1 -2 8 6 6 8 8 17 2 3 1 2 4 8 21 17 7 6 4 4 6 2 6 5 2 3 3 2 3 4 5 4 4 3 1 5 4 -0 0 9 5 4 -2 5 0 3 7 17 12
8 4 8 9 6 3 6 16 8 5 6 5 9 13 15 3 3 2 1 5 5 11 17 19 14 8 4 5 2 4 3 5 1 2 4 4 4 4 5 2 4 2 2 3 -4 2 4 0 2 3 5 6 11 14
2 6 3 7 -1 12 10 21 14 7 3 11 5 6 5 10 11 9 7 5 4 4 6 11 4 10 18 19 16 17 14 5 0 1 6 4 3 2 2 1 12 4 2 5 6 7 12 10 7 7 4 7 11 18
8 17 7 11 9 10 15 22 17 13 4 3 14 8 4 6 6 8 12 6 9 7 2 8 11 8 8 9 5 5 6 13 16 23 27 25 24 19 23 31 31 17 11 7 -6 -4 17 21 16 15 11 12 12 12
20 27 24 26 18 15 6 12 11 18 14 4 8 5 17 12 6 6 3 9 6 11 8 7 9 9 10 10 9 9 9 9 7 8 6 10 4 7 11 8 15 12 20 27 19 16 12 11 12 15 12 10 16 14
2 13 18 10 10 7 7 8 10 10 9 10 3 5 4 -2 7 13 8 8 7 5 3 3 10 3 -1 -1 -1 -1 -0 2 3 4 8 9 6 5 9 9 1 3 6 10 13 13 13 13 20 19 14 13 17 11
8 2 3 0 -1 1 1 0 3 6 9 8 8 7 5 6 2 2 4 3 6 6 8 6 7 -3 -2 -1 -2 -0 -1 2 3 1 2 2 6 9 11 1 18 8 7 3 6 5 3 8 14 21 22 20 14 7
5 7 1 0 -4 -2 0 1 2 -4 -3 3 2 7 2 2 3 4 4 3 4 7 6 1 5 0 3 6 2 1 -3 -1 3 -0 -1 -2 -1 7 3 9 8 14 15 10 9 6 4 7 7 10 13 15 11 5
3 5 1 -1 5 1 -5 5 1 -0 3 2 -4 -1 -4 1 3 -0 0 5 6 7 4 3 4 1 -0 1 2 9 0 2 1 2 3 2 2 7 3 2 7 5 10 13 10 10 8 7 7 6 9 8 9 8
4 2 -1 -1 1 14 8 5 6 -2 1 5 -3 2 -2 -1 14 19 1 -5 8 -1 -3 -5 -1 1 0 5 4 2 3 6 5 6 1 4 11 6 12 11 7 2 -1 11 12 11 13 12 13 10 7 6 6 7
10 6 2 -1 5 6 2 -4 -2 9 4 2 2 1 -3 6 9 4 2 6 9 7 7 4 2 2 9 7 12 11 6 3 3 4 5 2 9 4 9 8 9 9 19 20 9 6 10 14 11 6 3 6 7 8
7 1 3 9 1 10 10 -6 10 -1 5 17 13 9 19 5 10 13 18 18 17 17 14 15 12 6 12 11 12 11 17 12 6 8 9 12 7 12 8 13 18 19 14 15 16 16 13 11 4 4 8 7 4 6
10 15 16 7 23 17 19 30 26 34 22 12 16 11 2 -2 -2 14 15 15 17 15 17 16 14 10 14 14 11 10 19 16 20 21 27 32 22 14 16 25 30 22 10 -0 6 10 12 6 5 8 11 5 9 11
16 16 18 20 19 13 12 15 15 16 17 13 -2 -4 6 23 28 17 15 18 15 14 11 14 15 12 14 14 14 21 26 6 19 27 8 -6 -2 6 37 7 -2 2 2 5 10 11 4 5 8 8 9 13 14 6
15 14 17 14 15 19 19 21 14 9 12 9 -2 23 31 14 13 11 14 13 14 17 19 16 13 16 14 11 12 8 7 10 19 28 25 27 26 23 14 -1 9 14 12 11 10 10 10 6 8 9 9 14 14 11
17 12 12 14 9 10 10 11 10 10 9 8 13 9 9 14 10 11 14 12 14 15 14 10 11 11 14 14 13 10 16 19 16 5 10 -3 -2 8 21 7 14 13 13 17 19 15 14 13 10 12 12 6 15 15
7 7 6 6 8 6 5 5 8 7 12 9 16 13 13 14 15 12 12 12 12 10 9 11 14 11 8 9 15 16 19 15 16 13 12 13 16 17 21 4 -3 -5 0 5 8 2 3 1 6 11 12 15 17 13
5 5 4 4 3 3 4 6 4 7 11 9 11 11 13 13 13 11 9 12 10 9 9 11 6 1 11 15 13 11 11 12 16 14 13 16 13 9 16 17 18 10 15 12 10 16 13 12 13 14 14 15 14 18
5 4 1 5 6 6 7 5 4 8 9 7 6 4 8 8 6 7 10 11 11 9 9 6 9 12 13 13 15 9 12 14 12 21 25 3 -1 7 -6 6 20 21 15 7 13 21 17 14 12 5 12 15 15 13
8 7 10 10 12 13 10 9 8 7 7 6 5 6 8 9 10 11 11 11 8 6 10 13 14 14 17 14 12 19 10 6 5 12 19 21 33 36 41 23 -6 -11 -3 13 13 18 19 23 14 13 11 7 6 7
18 16 15 12 12 16 17 10 9 10 12 11 10 11 14 13 12 12 13 10 9 11 14 16 16 18 17 18 18 6 12 18 10 5 11 11 11 12 6 29 40 35 10 6 21 17 7 11 19 14 10 11 10 8
16 14 17 13 14 11 19 10 14 12 14 13 12 15 14 18 18 21 20 13 13 16 20 18 18 20 16 15 19 17 11 10 8 14 9 4 8 17 18 17 10 21 18 10 16 15 10 9 10 11 14 13 10 7
18 20 24 27 20 14 18 13 16 16 17 19 20 23 26 25 20 18 19 20 23 23 21 24 24 23 17 14 14 15 14 11 7 8 11 13 18 27 19 24 30 15 11 4 4 11 11 9 13 12 11 11 17 17
14 7 2 1 10 22 17 11 10 15 17 20 19 16 17 17 18 19 22 22 29 29 20 24 18 12 15 14 14 16 11 6 6 16 27 20 21 22 22 16 25 32 23 8 2 9 5 14 20 16 13 13 18 17
11 11 13 17 13 14 6 9 14 17 18 15 13 14 13 13 19 4 20 32 29 17 16 12 21 16 13 10 18 14 16 13 10 17 21 29 22 10 10 13 20 27 23 17 18 -2 12 3 12 11 16 18 18 16
7 4 9 15 15 14 10 9 12 10 10 10 10 9 11 13 11 18 27 20 19 13 0 9 -3 19 37 36 24 27 17 23 22 18 38 22 -5 -6 13 18 22 24 20 16 11 22 18 6 -6 5 17 18 14 13
10 12 11 14 14 14 8 10 9 9 9 9 13 13 7 13 20 16 13 19 9 22 15 23 6 4 9 4 11 16 13 10 3 13 25 8 7 12 11 12 16 24 22 24 16 12 14 5 5 7 15 11 13 12
24 26 25 26 29 25 24 27 20 15 14 12 16 16 4 10 10 5 24 5 -3 11 13 7 1 -3 18 11 -2 10 22 13 -4 23 30 1 8 8 -3 12 5 6 26 23 34 13 3 6 8 15 14 10 12 11
17 24 18 23 22 19 18 18 20 20 16 16 22 27 14 12 10 19 11 6 12 18 17 14 7 19 18 14 18 12 8 13 7 15 9 43 20 6 6 4 -1 10 10 13 20 25 17 13 9 8 13 14 12 15
9 8 10 5 9 12 24 27 -5 6 13 10 18 24 28 28 24 20 11 10 6 6 17 22 24 11 17 9 15 21 15 6 10 9 22 6 40 8 13 23 5 -3 10 15 13 16 33 19 7 10 10 14 15 11
17 21 20 17 15 13 7 4 3 5 16 21 24 27 27 25 24 29 21 3 6 8 2 8 28 34 21 17 8 7 13 11 5 6 3 5 22 7 18 38 9 4 5 12 12 16 24 20 13 11 11 11 13 12
13 12 13 13 16 13 12 16 8 4 9 8 8 13 25 32 20 16 28 26 21 6 29 26 15 23 22 24 20 13 8 9 7 6 -2 15 -16 11 16 19 31 10 5 5 9 19 21 26 15 9 6 10 11 12
Height
5736 5738 5741 5742 5743 5743 5742 5740 5740 5740 5740 5740 5739 5739 5739 5737 5734 5735 5735 5735 5734 5732 5731 5730 5727 5726 5725 5724 5723 5722 5722 5721 5720 5719 5718 5717 5716 5716 5714 5713 5711 5710 5708 5705 5703 5700 5700 5697 5696 5693 5690 5685 5681 5677
5727 5729 5731 5732 5733 5734 5734 5734 5733 5733 5733 5732 5734 5734 5734 5733 5733 5732 5731 5730 5731 5730 5729 5727 5726 5725 5723 5722 5722 5720 5719 5717 5716 5716 5716 5714 5712 5711 5710 5709 5708 5706 5703 5702 5700 5698 5694 5692 5690 5687 5683 5680 5676 5672
5717 5717 5720 5722 5723 5725 5725 5725 5725 5725 5726 5726 5725 5726 5728 5728 5728 5728 5727 5727 5727 5725 5725 5723 5722 5722 5720 5718 5718 5717 5715 5715 5712 5711 5711 5710 5709 5706 5705 5705 5703 5702 5696 5694 5690 5693 5686 5684 5684 5679 5677 5674 5669 5667
5706 5708 5709 5710 5713 5714 5715 5715 5715 5716 5717 5718 5718 5718 5718 5719 5720 5721 5721 5721 5720 5722 5721 5720 5718 5717 5715 5713 5712 5712 5710 5709 5708 5706 5705 5703 5701 5698 5699 5696 5697 5694 5690 5683 5682 5681 5679 5678 5674 5670 5667 5664 5660 5658
5692 5694 5697 5699 5701 5703 5704 5704 5706 5707 5708 5710 5712 5710 5710 5711 5711 5712 5713 5713 5715 5716 5716 5714 5714 5711 5710 5708 5707 5706 5703 5702 5701 5700 5699 5697 5694 5688 5690 5690 5690 5683 5679 5672 5670 5672 5670 5668 5666 5662 5658 5653 5650 5648
5678 5680 5684 5687 5690 5691 5692 5693 5694 5698 5699 5701 5703 5704 5705 5705 5705 5704 5706 5706 5706 5707 5708 5709 5709 5706 5704 5702 5701 5698 5697 5695 5693 5692 5693 5691 5687 5684 5685 5684 5681 5676 5672 5669 5667 5662 5659 5655 5653 5649 5647 5644 5642 5640
5665 5668 5672 5675 5679 5680 5682 5684 5684 5685 5688 5691 5693 5695 5696 5697 5698 5698 5698 5700 5698 5698 5699 5701 5702 5700 5698 5696 5694 5692 5690 5688 5686 5685 5686 5682 5680 5677 5678 5674 5671 5669 5667 5661 5657 5655 5652 5647 5644 5640 5638 5635 5634 5632
5651 5655 5660 5663 5665 5668 5670 5672 5675 5676 5676 5679 5682 5684 5686 5687 5688 5688 5686 5688 5689 5690 5690 5691 5696 5694 5690 5690 5687 5685 5682 5680 5679 5677 5678 5677 5675 5672 5670 5661 5663 5658 5657 5656 5650 5646 5643 5640 5636 5633 5630 5627 5625 5622
5636 5640 5644 5651 5652 5655 5657 5659 5661 5664 5665 5667 5670 5672 5674 5676 5676 5676 5676 5676 5677 5679 5675 5678 5682 5679 5682 5681 5678 5676 5672 5671 5669 5670 5668 5665 5667 5667 5658 5657 5653 5649 5647 5644 5640 5638 5634 5632 5628 5625 5621 5620 5619 5615
5623 5625 5629 5634 5637 5641 5644 5646 5649 5649 5650 5653 5656 5659 5661 5664 5664 5665 5666 5665 5664 5663 5663 5664 5663 5664 5666 5664 5663 5664 5660 5659 5658 5657 5654 5655 5659 5654 5650 5646 5644 5640 5636 5633 5631 5628 5625 5621 5618 5615 5612 5609 5607 5606
5608 5609 5611 5616 5621 5623 5626 5630 5633 5635 5636 5637 5640 5643 5646 5648 5651 5652 5651 5652 5652 5650 5650 5649 5647 5646 5645 5647 5647 5646 5645 5644 5643 5644 5641 5641 5642 5640 5636 5632 5628 5627 5625 5622 5619 5616 5614 5611 5607 5602 5601 5599 5596 5594
5588 5592 5595 5597 5600 5603 5607 5612 5613 5617 5619 5622 5625 5626 5629 5632 5633 5635 5636 5637 5637 5634 5634 5631 5630 5629 5628 5626 5626 5626 5625 5627 5627 5628 5627 5625 5625 5621 5618 5616 5613 5610 5608 5608 5605 5603 5602 5600 5596 5593 5589 5586 5583 5580
5568 5573 5577 5581 5582 5582 5586 5591 5593 5593 5596 5599 5604 5609 5613 5613 5615 5617 5618 5618 5614 5611 5610 5609 5610 5609 5608 5608 5606 5605 5605 5606 5607 5608 5609 5610 5606 5603 5600 5598 5596 5595 5593 5591 5590 5588 5587 5585 5584 5581 5578 5575 5572 5569
5546 5552 5556 5562 5562 5560 5563 5568 5570 5571 5573 5577 5582 5591 5594 5598 5597 5599 5598 5595 5592 5588 5586 5586 5587 5589 5587 5586 5584 5583 5583 5585 5585 5588 5589 5589 5589 5585 5583 5580 5579 5579 5578 5577 5576 5575 5574 5572 5570 5568 5565 5564 5560 5557
5527 5532 5537 5541 5539 5538 5539 5545 5547 5548 5549 5552 5559 5571 5581 5580 5579 5577 5574 5572 5570 5568 5567 5565 5566 5568 5566 5565 5564 5564 5564 5567 5569 5572 5572 5571 5571 5570 5567 5566 5564 5563 5563 5562 5562 5561 5560 5557 5555 5553 5552 5550 5547 5543
5509 5515 5521 5520 5520 5521 5522 5524 5524 5525 5526 5530 5543 5558 5562 5558 5560 5558 5556 5555 5551 5548 5544 5544 5545 5544 5547 5546 5546 5549 5549 5552 5556 5554 5554 5553 5550 5549 5550 5550 5550 5548 5546 5547 5547 5546 5545 5544 5543 5540 5537 5536 5533 5530
5494 5503 5502 5499 5504 5506 5506 5506 5506 5506 5505 5514 5535 5539 5538 5537 5539 5538 5536 5535 5532 5529 5527 5524 5525 5527 5523 5520 5525 5529 5535 5541 5539 5539 5537 5535 5535 5534 5533 5534 5533 5531 5532 5533 5533 5533 5532 5531 5530 5527 5524 5522 5520 5517
5483 5486 5484 5483 5485 5487 5486 5488 5488 5486 5495 5509 5514 5522 5515 5519 5520 5521 5516 5517 5517 5510 5508 5508 5507 5503 5504 5506 5514 5520 5520 5521 5519 5518 5517 5514 5509 5512 5517 5518 5517 5517 5518 5519 5519 5519 5518 5517 5516 5514 5511 5509 5509 5505
5465 5466 5466 5466 5468 5468 5469 5473 5470 5472 5485 5492 5497 5495 5494 5500 5504 5504 5496 5496 5496 5492 5490 5486 5484 5487 5497 5501 5500 5499 5499 5498 5499 5499 5493 5493 5494 5497 5499 5500 5500 5502 5502 5502 5502 5502 5501 5500 5501 5499 5497 5495 5495 5494
5445 5448 5450 5448 5447 5448 5449 5454 5457 5458 5471 5472 5474 5474 5473 5479 5481 5480 5480 5477 5477 5470 5468 5471 5477 5481 5482 5482 5479 5478 5480 5480 5474 5471 5474 5477 5478 5480 5480 5482 5484 5486 5485 5486 5487 5485 5486 5485 5485 5483 5482 5481 5481 5481
5426 5434 5432 5430 5427 5427 5429 5434 5438 5445 5446 5450 5453 5450 5450 5456 5458 5459 5459 5457 5453 5451 5457 5464 5465 5466 5465 5462 5463 5461 5457 5455 5455 5453 5454 5457 5463 5462 5462 5466 5468 5466 5467 5469 5470 5470 5469 5468 5468 5467 5467 5467 5467 5467
5411 5410 5411 5410 5410 5407 5406 5419 5419 5423 5422 5428 5430 5428 5430 5434 5435 5435 5436 5434 5431 5439 5444 5445 5445 5445 5444 5443 5442 5439 5437 5440 5441 5437 5438 5440 5441 5445 5445 5446 5445 5448 5450 5452 5454 5455 5454 5454 5452 5452 5453 5452 5452 5453
5390 5391 5392 5394 5392 5389 5393 5399 5397 5402 5403 5410 5408 5405 5410 5413 5412 5414 5411 5411 5417 5426 5425 5423 5427 5426 5418 5418 5418 5421 5422 5421 5419 5421 5424 5426 5426 5428 5428 5428 5428 5430 5434 5438 5437 5437 5438 5439 5439 5438 5438 5439 5438 5439
5372 5374 5376 5375 5375 5374 5376 5376 5383 5387 5387 5389 5391 5391 5391 5395 5395 5387 5384 5395 5402 5406 5407 5408 5404 5400 5399 5398 5400 5402 5406 5406 5402 5406 5410 5409 5410 5414 5412 5412 5413 5413 5417 5421 5423 5423 5424 5426 5425 5425 5425 5425 5425 5426
5357 5359 5359 5360 5360 5361 5360 5364 5369 5370 5373 5378 5374 5371 5376 5377 5371 5366 5367 5378 5388 5392 5388 5386 5382 5380 5380 5382 5387 5391 5393 5389 5388 5391 5399 5393 5396 5397 5397 5396 5397 5398 5401 5405 5409 5412 5414 5413 5413 5413 5414 5414 5414 5413
5341 5343 5345 5348 5349 5351 5352 5354 5356 5359 5358 5357 5357 5359 5361 5358 5353 5350 5357 5370 5373 5370 5370 5367 5367 5368 5370 5372 5373 5377 5378 5374 5375 5380 5386 5381 5383 5384 5385 5386 5386 5387 5384 5388 5393 5397 5399 5400 5401 5401 5402 5402 5402 5402
5327 5329 5334 5340 5340 5340 5340 5341 5343 5341 5341 5342 5344 5345 5342 5337 5337 5346 5353 5355 5353 5355 5353 5352 5355 5356 5360 5360 5361 5362 5363 5363 5364 5368 5371 5371 5373 5373 5374 5373 5373 5374 5373 5374 5377 5382 5385 5386 5388 5389 5391 5391 5390 5390
5321 5323 5325 5330 5328 5329 5326 5326 5324 5325 5328 5330 5328 5327 5326 5326 5328 5334 5337 5338 5339 5339 5338 5340 5343 5346 5347 5347 5348 5350 5352 5352 5353 5355 5357 5359 5361 5362 5362 5361 5362 5361 5362 5362 5364 5369 5372 5374 5377 5378 5378 5379 5379 5379
5312 5316 5316 5313 5313 5311 5309 5311 5311 5313 5316 5312 5309 5309 5310 5314 5318 5321 5323 5323 5324 5325 5327 5331 5332 5330 5331 5334 5336 5339 5341 5341 5341 5341 5342 5344 5347 5352 5348 5352 5352 5352 5351 5352 5353 5356 5359 5362 5365 5366 5367 5368 5368 5367
5306 5306 5302 5303 5301 5298 5300 5300 5299 5301 5299 5296 5294 5292 5293 5297 5304 5306 5307 5310 5311 5312 5313 5312 5314 5316 5319 5321 5324 5327 5328 5327 5326 5327 5329 5332 5335 5338 5338 5341 5342 5342 5342 5343 5344 5345 5348 5350 5353 5354 5355 5356 5357 5357
5294 5293 5292 5291 5290 5291 5291 5290 5286 5285 5284 5283 5282 5276 5275 5281 5284 5289 5291 5293 5293 5294 5296 5297 5298 5301 5304 5306 5305 5306 5313 5316 5314 5316 5318 5320 5322 5324 5325 5327 5330 5331 5333 5334 5335 5336 5338 5339 5340 5342 5344 5345 5347 5348
5283 5281 5281 5279 5279 5282 5279 5277 5274 5272 5272 5267 5264 5263 5261 5259 5261 5272 5278 5276 5277 5278 5282 5283 5282 5286 5287 5286 5288 5292 5299 5303 5304 5306 5307 5308 5309 5311 5312 5314 5318 5321 5323 5324 5325 5326 5328 5328 5329 5331 5333 5335 5337 5339
5272 5272 5270 5268 5269 5271 5272 5266 5262 5260 5260 5256 5254 5253 5250 5247 5245 5252 5258 5261 5264 5267 5268 5268 5268 5270 5272 5273 5277 5281 5284 5290 5293 5295 5297 5298 5299 5300 5301 5303 5305 5311 5313 5315 5317 5318 5319 5319 5321 5322 5324 5325 5328 5330